Alcoa, TN

8:52 PM EDT on August 24, 2016 (GMT -0400)
McGhee Tyson

Weather History for KTYS - January, 2013

Change the Weather History Date:

Saturday, January 5, 2013

  Actual Average Record
Temperature  
Mean Temperature 35 °F 38 °F  
Max Temperature 47 °F 47 °F 73 °F (1950)
Min Temperature 22 °F 29 °F -5 °F (1884)
Degree Days  
Heating Degree Days 30 27  
Month to date heating degree days 140 135  
Since 1 July heating degree days 1500 1568  
Cooling Degree Days 0 0  
Month to date cooling degree days 0 0  
Year to date cooling degree days 0 0  
Moisture  
Dew Point 25 °F    
Average Humidity 63    
Maximum Humidity 88    
Minimum Humidity 38    
Precipitation  
Precipitation 0.08 in 0.14 in 2.08 in (1949)
Month to date precipitation 1.30 0.66  
Year to date precipitation 1.30 0.66  
Snow  
Snow 0.00 in 0.00 in - ()
Month to date snowfall 0.0 0.3  
Since 1 July snowfall T 1.1  
Snow Depth 0.00 in    
Sea Level Pressure  
Sea Level Pressure 30.35 in    
Wind  
Wind Speed 4 mph (North)    
Max Wind Speed 9 mph    
Max Gust Speed 12 mph    
Visibility 10 miles    
Events Rain    
T = Trace of Precipitation, MM = Missing Value Source: NWS Daily Summary

Daily Weather History Graph

Daily Weather History Graph

Search for Another Location

Airport or City:

Trip Planner

Search our weather history database for the weather conditions in past years. The results will help you decide how hot, cold, wet, or windy it might be!

Date:

Astronomy

Jan. 05, 2013 Rise Set
Actual Time 7:46 AM EST 5:36 PM EST
Civil Twilight 7:18 AM EST 6:04 PM EST
Nautical Twilight 6:46 AM EST 6:36 PM EST
Astronomical Twilight 6:15 AM EST 7:07 PM EST
Moon 12:58 AM EST (1/5) 12:20 PM EST (1/5)
Length of Visible Light 10h 46m
Length of Day
9h 50m
Last Quarter, 44% of the Moon is Illuminated
Jan 5
Last Quarter
Jan 11
New
Jan 18
First Quarter
Jan 26
Full
Feb 3
Last Quarter

Hourly Weather History & Observations

Time (EST) Temp. Windchill Dew Point Humidity Pressure Visibility Wind Dir Wind Speed Gust Speed Precip Events Conditions
12:53 AM 26.1 °F 19.4 °F 21.0 °F 81% 30.42 in 10.0 mi ENE 5.8 mph - N/A   Clear
1:53 AM 27.0 °F - 21.9 °F 81% 30.42 in 10.0 mi Calm Calm - N/A   Clear
2:53 AM 25.0 °F 20.7 °F 21.0 °F 85% 30.40 in 10.0 mi ENE 3.5 mph - N/A   Clear
3:53 AM 24.1 °F 17.0 °F 21.0 °F 88% 30.39 in 10.0 mi NNE 5.8 mph - N/A   Clear
4:53 AM 26.1 °F 21.9 °F 21.9 °F 84% 30.39 in 10.0 mi NNW 3.5 mph - N/A   Clear
5:53 AM 26.1 °F 20.5 °F 21.9 °F 84% 30.39 in 10.0 mi NNE 4.6 mph - N/A   Clear
6:53 AM 24.1 °F 18.2 °F 21.0 °F 88% 30.41 in 10.0 mi NE 4.6 mph - N/A   Clear
7:53 AM 26.1 °F 20.5 °F 21.9 °F 84% 30.43 in 10.0 mi NNE 4.6 mph - N/A   Clear
8:53 AM 28.0 °F 22.8 °F 23.0 °F 81% 30.42 in 10.0 mi North 4.6 mph - N/A   Clear
9:53 AM 32.0 °F 25.6 °F 25.0 °F 75% 30.41 in 10.0 mi NNE 6.9 mph - N/A   Clear
10:53 AM 37.0 °F 31.6 °F 26.1 °F 65% 30.40 in 10.0 mi NE 6.9 mph - N/A   Clear
12:53 PM 42.1 °F - 24.1 °F 49% 30.34 in 10.0 mi Calm Calm - N/A   Clear
1:53 PM 44.1 °F 42.5 °F 23.0 °F 43% 30.29 in 10.0 mi Variable 3.5 mph - N/A   Clear
2:53 PM 45.0 °F - 21.0 °F 39% 30.28 in 10.0 mi Calm Calm - N/A   Clear
3:53 PM 46.0 °F - 23.0 °F 40% 30.27 in 10.0 mi Calm Calm - N/A   Clear
4:53 PM 45.0 °F - 23.0 °F 42% 30.27 in 10.0 mi Calm Calm - N/A   Mostly Cloudy
5:53 PM 44.1 °F 41.5 °F 24.1 °F 45% 30.27 in 10.0 mi WNW 4.6 mph - 0.00 in   Overcast
6:53 PM 44.1 °F - 25.0 °F 47% 30.28 in 10.0 mi Calm Calm - 0.00 in Rain Light Rain
7:53 PM 42.1 °F 38.4 °F 30.0 °F 62% 30.31 in 10.0 mi SW 5.8 mph - 0.00 in   Light Drizzle
8:53 PM 41.0 °F 35.8 °F 33.1 °F 73% 30.30 in 10.0 mi SW 8.1 mph - 0.00 in Rain Light Rain
9:53 PM 39.0 °F 35.7 °F 33.1 °F 79% 30.29 in 5.0 mi WSW 4.6 mph - 0.04 in Rain Rain
10:53 PM 39.0 °F 34.8 °F 35.1 °F 86% 30.30 in 10.0 mi SSW 5.8 mph - 0.03 in Rain Light Rain
11:53 PM 37.9 °F 32.7 °F 35.1 °F 89% 30.27 in 10.0 mi SW 6.9 mph - 0.01 in Rain Light Rain